Nome, AK (99762)

5:36 PM AKDT on September 27, 2016 (GMT -0800)
Nome | | Change Station
Active Advisory: High Surf Advisory

Elev 36 ft 64.51 °N, 165.45 °W | Updated 43 minutes ago

Overcast
Overcast
45 °F
Feels Like 37 °F
N
18
Wind Variable Wind from SSE

Today
High -- | Low -- °F
--% Chance of Precip.
Yesterday
High -- | Low -- °F
Precip. -- in
Pressure 29.96 in
Visibility 10.0 miles
Clouds Scattered Clouds 800 ft
Overcast 3500 ft
Windchill 37 °F
Dew Point 44 °F
Humidity 97%
Rainfall 0.10 in
Snow Depth Not available.
9:01 AM 8:41 PM
Waning Crescent, 8% visible
METAR PAOM 280053Z 15016KT 10SM SCT008 OVC035 07/07 A2996 RMK SLP145 SCT V BKN T00720067 VIA AUTODIAL
Pressure 29.96 in
Visibility 10.0 miles
Clouds Scattered Clouds 800 ft
Overcast 3500 ft
Windchill 37 °F
Dew Point 44 °F
Humidity 97%
Rainfall 0.10 in
Snow Depth Not available.
9:01 AM 8:41 PM
Waning Crescent, 8% visible
METAR PAOM 280053Z 15016KT 10SM SCT008 OVC035 07/07 A2996 RMK SLP145 SCT V BKN T00720067 VIA AUTODIAL

10-Day Weather Forecast

Almanac

Astronomy

Sep. 27, 2016 Rise Set
Actual Time
Civil Twilight
Nautical Twilight
Astronomical Twilight
Moon
Length of Visible Light
Length of Day
Tomorrow will be .
, % of the Moon is Illuminated

Today's Extremes

State Highs State Lows

Community

WunderPhotos

Upload Photos

1,942,179 photos uploaded!

WunderBlog® & News

Nearby

Air Quality

  Air Quality AQ Index Pollutant
Not available.

Snow Depth

Station Depth Elevation

Earthquake Activity

City Distance Mag. Time & Date
Minimum magnitude displayed is 2.5.

Coastal Water Temperatures

Place Temperature

Stations

Nearby Weather Stations

Station Location Temp. Windchill Dew Point Humidity Wind Precip. Elev Updated Type
                   

Watches & Warnings

High Surf Advisory
Issued: 1:53 PM AKDT Sep. 27, 2016 – National Weather Service

... High surf advisory remains in effect from 10 PM this evening
to 4 am akdt Thursday...

* location... from Nome east.

* Waves and surf... waves 6 feet breaking just offshore combined
with a storm surge of 2 to 4 feet will produce high surf
conditions.

* Timing... strong west winds will build the surf through the day
Wednesday then turn from the south.

* Impacts... the high surf and elevated sea levels could cause
localized beach erosion.

Precautionary/preparedness actions...

A high surf advisory means that localized beach erosion is
expected. Precautions should be taken to protect property by
moving it to higher ground or protected areas.